Terminal Aerodrome Forecast
Issued by NWS Des Moines, IA

Home | Current Version | Previous Version | Text Only | Print | Product List | Glossary On
Versions: 1 2 3 4 5 6 7 8 9 10 11 12 13 14 15 16 17 18 19 20 21 22 23 24 25 26 27 28 29 30 31 32 33 34 35 36 37 38 39
000
FTUS43 KDMX 080117 AAA
TAFDSM
TAF AMD
KDSM 080117Z 0801/0824 31016G22KT 6SM -SHSN BKN022
      TEMPO 0801/0802 5SM -SHSN OVC016
     FM080500 32024G34KT 2SM -SHSN BLSN SCT006 OVC015
     FM081700 33026G34KT 1/2SM SHSN BLSN OVC008
     FM082300 33021G30KT 1SM BLSN OVC012=

USA.gov is the U.S. government's official web portal to all federal, state and local government web resources and services.